Regional Weather Roundup
Issued by NWS

Home | Current Version | Previous Version | Text Only | Print | Product List | Glossary Off
Versions: 1 2 3 4 5 6 7 8 9 10 11 12 13 14 15 16 17 18 19 20 21 22 23 24 25 26 27 28 29 30 31 32 33 34 35 36 37 38 39 40 41 42 43 44 45 46 47 48 49 50

000
ASUS43 KMKX 290359
RWRWI

WISCONSIN REGIONAL WEATHER ROUNDUP
NATIONAL WEATHER SERVICE MILWAUKEE/SULLIVAN WI
1100 PM CDT SAT MAR 28 2015

NOTE: "FAIR" INDICATES FEW OR NO CLOUDS BELOW 12,000 FEET WITH NO
SIGNIFICANT WEATHER AND/OR OBSTRUCTIONS TO VISIBILITY.

WIZ001-002-006>008-014>016-023>028-290500-
NORTHWEST WISCONSIN

CITY           SKY/WX    TMP DP  RH WIND       PRES   REMARKS
SUPERIOR ARPT  MOCLDY    36  18  48 SW10      29.94F WCI  28
ASHLAND        PTCLDY    35  11  36 S12G18    29.96F WCI  27
HAYWARD        MOCLDY    34  14  43 S17G24    29.98F WCI  23
SIREN          PTCLDY    34  18  51 S13G20    29.97F WCI  25
CUMBERLAND     MOCLDY    32  18  55 S18       29.99F WCI  20
RICE LAKE      MOCLDY    33  17  51 SE15      30.02F WCI  22
CHETEK         MOCLDY    33  16  50 SE8G17    30.04F WCI  26
LADYSMITH      MOCLDY    33  14  45 S10       30.05F WCI  25
EAU CLAIRE     NOT AVBL
MENOMONIE      MOCLDY    32  18  54 SE9       30.04F WCI  25
NEW RICHMOND   PTCLDY    33  20  58 S16       30.00F WCI  23
OSCEOLA        PTCLDY    34  21  59 SE17      30.01F WCI  24
$$

WIZ003>005-009-010-017-018-290500-
NORTH CENTRAL WISCONSIN

CITY           SKY/WX    TMP DP  RH WIND       PRES   REMARKS
MANITOWISH WTR CLEAR     31  12  45 SW10      30.01F WCI  22
ARBOR VITAE    PTCLDY    32  13  45 SW10      30.02F WCI  23
WOODRUFF       PTCLDY    32  13  45 SW10      30.02F WCI  23
RHINELANDER    MOCLDY    31  11  43 SW13      30.05F WCI  21
EAGLE RIVER    MOCLDY    31   9  39 SW6       30.02F WCI  25
LAND O LAKES   MOCLDY    31  11  43 S6        30.02F WCI  25
PHILLIPS       PTCLDY    31  12  44 S14       30.02F WCI  21
TOMAHAWK       MOCLDY    31  13  47 CALM      30.06F
MEDFORD        MOCLDY    31  15  52 S10       30.07F WCI  22
MERRILL        CLOUDY    32  14  47 SW10      30.09F WCI  24
$$

WIZ029-030-035-036-043>047-290500-
CENTRAL WISCONSIN

CITY           SKY/WX    TMP DP  RH WIND       PRES   REMARKS
WAUSAU         MOCLDY    32  13  45 S13       30.09F WCI  22
MOSINEE        MOCLDY    30  16  55 S10       30.11F WCI  21
MARSHFIELD     MOCLDY    32  14  47 S12       30.11F WCI  23
STEVENS POINT  PTCLDY    29  13  49 S10       30.14F WCI  20
WAUPACA        PTCLDY    30  14  52 S6        30.17F WCI  24
WAUTOMA        NOT AVBL
WISC RAPIDS    PTCLDY    30  11  45 S8        30.15F WCI  22
CAMP DOUGLAS   NOT AVBL
$$

WIZ011>013-019>022-031-037>040-048>050-290500-
NORTHEAST WISCONSIN

CITY           SKY/WX    TMP DP  RH WIND       PRES   REMARKS
ANTIGO         CLOUDY    30  14  51 SW12      30.09F WCI  21
SHAWANO        PTCLDY    33  15  45 SW5       30.16S WCI  29
OCONTO         PTCLDY    29  23  76 S6        30.17S WCI  23
STURGEON BAY   MOCLDY    27  18  69 S12G17    30.20S WCI  16
GREEN BAY      CLEAR     29  21  72 S10       30.18F WCI  20
MANITOWOC      NOT AVBL
APPLETON       PTCLDY    30  14  51 SW10      30.19S WCI  21
CLINTONVILLE   PTCLDY    32  14  47 SW10      30.16S WCI  24
OSHKOSH        CLEAR     25  15  66 S7        30.19F WCI  17
$$

WIZ032>034-041-042-053>061-290500-
SOUTHWEST WISCONSIN

CITY           SKY/WX    TMP DP  RH WIND       PRES   REMARKS
LA CROSSE      CLEAR     36  16  44 S9        30.12F WCI  29
SPARTA         PTCLDY    32  14  47 S10       30.15F WCI  24
VIROQUA        CLEAR     31  17  54 S10       30.13F WCI  23
BOSCOBEL       CLEAR     34  13  41 VRB7      30.18F WCI  28
PRAIRIE DU CHI CLEAR     33  13  43 SE6       30.17F WCI  28
PLATTEVILLE    CLEAR     29  18  61 SE8       30.19F WCI  21
$$

WIZ056-057-062-063-064-067-068-290500-
SOUTH CENTRAL WISCONSIN

CITY           SKY/WX    TMP DP  RH WIND       PRES   REMARKS
REEDSBURG      CLEAR     30  15  52 S7        30.18S WCI  23
BARABOO/DELLS  CLEAR     30  15  54 S7        30.17F WCI  23
LONE ROCK      NOT AVBL
MINERAL POINT  CLEAR     32  14  47 S7        30.18F WCI  26
MADISON        MOCLDY    32  15  49 S6        30.20F WCI  26
MIDDLETON      CLEAR     32  15  49 S5        30.21F WCI  27
WATERTOWN      CLEAR     28  17  62 S5        30.21F WCI  23
MONROE         CLEAR     30  18  59 S9        30.21S WCI  22
JANESVILLE     CLEAR     32  16  51 S6        30.22F WCI  26
$$

WIZ051-052-058>065-066-070>072-290500-
SOUTHEAST WISCONSIN

CITY           SKY/WX    TMP DP  RH WIND       PRES   REMARKS
MILWAUKEE      CLEAR     26  12  55 S8        30.25F WCI  18
WAUKESHA       CLEAR     25  12  58 S3        30.25S
MILWAUKEE/TIMM CLEAR     28  10  47 S9        30.25S WCI  20
RACINE         CLEAR     26  14  60 S6        30.26F WCI  19
BURLINGTON     CLEAR     23  12  63 CALM      30.25S
KENOSHA        CLEAR     25  15  66 S8        30.25F WCI  16
FOND DU LAC    CLEAR     24  16  71 S7        30.20F WCI  16
SHEBOYGAN      CLEAR     24  18  77 SW8       30.22F WCI  15
WEST BEND      CLEAR     27  14  59 S6        30.23S WCI  20
JUNEAU         CLEAR     28  15  59 S9        30.22F WCI  19
$$

LSZ147-162-290500-
LAKE SUPERIOR

STATION/POSITION TIME  TEMP    WIND        PRES    WAVE
                       AIR SEA DIR/SP/G            HT/PER
                 (UTC) (F)     (DEG/KT/KT) (MB)    (FT/S)
DEVILS ISLAND    0300   38     200/ 13/ 16 1015.6F
PORT WING        0300   37     190/ 13/ 19 1015.2F
SAXON HARBOR     0300   38     200/  8/ 19 1015.9F
$$

LMZ867-665-643>646-290500-
LAKE MICHIGAN

STATION/POSITION TIME  TEMP    WIND        PRES    WAVE
                       AIR SEA DIR/SP/G            HT/PER
                 (UTC) (F)     (DEG/KT/KT) (MB)    (FT/S)
NORTHPORT PIER   0300   30     170/ 10/ 15 1022.0S
SISTER BAY       0317   29     190/ 16/ 20   N/A
KEWAUNEE LAKESHO 0300   30     200/ 13/ 16 1022.2F
SHEBOYGAN LAKESH 0300   31     190/ 20/ 23 1024.7F
PORT WASHINGTON  0340   29     220/  6/ 11 1024.7F
MILWAUKEE LAKESH 0300   29     200/ 11/ 13   N/A
KENOSHA   LAKESH 0300   29     190/  7/ 11 1025.4S
$$

TC  - TEMPERATURE IN CELSIUS
VSB - VISIBILITY IN STATUTE MILES
WCI - WIND CHILL INDEX
HX  - HEAT INDEX



USA.gov is the U.S. government's official web portal to all federal, state and local government web resources and services.